Al Hoceima, Morocco

11:55 PM WET on November 21, 2017 (GMT +0000)
Al Hoceima

Weather History for GMTA - November, 2012

Change the Weather History Date:

Sunday, November 4, 2012

  Actual Average Record
Temperature  
Mean Temperature 76 °F -  
Max Temperature 86 °F 65 °F 86 °F (2012)
Min Temperature 65 °F 51 °F 50 °F (2003)
Cooling Degree Days 10    
Growing Degree Days 26 (Base 50)    
Moisture  
Dew Point 65 °F    
Average Humidity 61    
Maximum Humidity 83    
Minimum Humidity 44    
Precipitation  
Precipitation 0.00 in - - ()
Sea Level Pressure  
Sea Level Pressure 29.88 in    
Wind  
Wind Speed 4 mph ()    
Max Wind Speed 9 mph    
Max Gust Speed -    
Visibility 6.6 miles    
Events      
Averages and records for this station are not official NWS values.
T = Trace of Precipitation, MM = Missing Value Source: Averaged Metar Reports

Daily Weather History Graph

Daily Weather History Graph

Search for Another Location

Airport or City:

Trip Planner

Search our weather history database for the weather conditions in past years. The results will help you decide how hot, cold, wet, or windy it might be!

Date:

Astronomy

Nov. 04, 2012 Rise Set
Actual Time 6:39 AM WET 5:17 PM WET
Civil Twilight 6:13 AM WET 5:44 PM WET
Nautical Twilight 5:43 AM WET 6:14 PM WET
Astronomical Twilight 5:13 AM WET 6:43 PM WET
Moon 9:44 PM WET (11/4) 11:11 AM WET (11/4)
Length of Visible Light 11h 30m
Length of Day
10h 37m
Waning Gibbous, 74% of the Moon is Illuminated
Nov 4
Waning Gibbous
Nov 7
Last Quarter
Nov 13
New
Nov 20
First Quarter
Nov 28
Full

Hourly Weather History & Observations

Time (WET) Temp. Heat Index Dew Point Humidity Pressure Visibility Wind Dir Wind Speed Gust Speed Precip Events Conditions
6:00 AM 68 °F - 62 °F 75% 29.88 in 6 mi South 4.6 mph - -   Partly Cloudy
6:00 AM 68.0 °F - 62.6 °F 83% 29.86 in 6.2 mi South 4.6 mph - N/A   Mostly Cloudy
7:00 AM 68.0 °F - 60.8 °F 78% 29.86 in 6.2 mi ESE 2.3 mph - N/A   Scattered Clouds
8:00 AM 69.8 °F - 64.4 °F 83% 29.89 in 6.2 mi WSW 4.6 mph - N/A   Scattered Clouds
9:00 AM 77 °F - 67 °F 65% 29.91 in 6 mi SW 2.3 mph - -   Scattered Clouds
9:00 AM 77.0 °F - 68.0 °F 74% 29.89 in 6.2 mi SW 2.3 mph - N/A   Scattered Clouds
10:00 AM 82.4 °F 84.6 °F 66.2 °F 58% 29.89 in 6.2 mi NNE 4.6 mph - N/A   Scattered Clouds
11:00 AM 82.4 °F 84.6 °F 66.2 °F 58% 29.89 in 6.2 mi NNE 4.6 mph - N/A   Scattered Clouds
12:00 PM 81 °F - 67 °F 53% 29.88 in 6 mi NNW 4.6 mph - -   Scattered Clouds
12:00 PM 80.6 °F 82.7 °F 66.2 °F 61% 29.86 in 6.2 mi NNW 4.6 mph - N/A   Scattered Clouds
1:00 PM 82.4 °F 84.6 °F 66.2 °F 58% 29.86 in 6.2 mi WNW 6.9 mph - N/A   Mostly Cloudy
2:00 PM 78.8 °F - 66.2 °F 65% 29.86 in 6.2 mi NNW 9.2 mph - N/A   Scattered Clouds
3:00 PM 82 °F - 66 °F 49% 29.87 in 9 mi NNW 6.9 mph - -   Mostly Cloudy
3:00 PM 82.4 °F 84.6 °F 66.2 °F 58% 29.86 in 6.2 mi North 6.9 mph - N/A   Scattered Clouds
4:00 PM 82.4 °F 83.4 °F 62.6 °F 51% 29.86 in 6.2 mi NW 6.9 mph - N/A   Scattered Clouds
5:00 PM 80.6 °F 82.3 °F 64.4 °F 58% 29.89 in 6.2 mi NNW 4.6 mph - N/A   Scattered Clouds
6:00 PM 79 °F - 64 °F 51% 29.90 in 9 mi West 2.3 mph - -   Mostly Cloudy
6:00 PM 78.8 °F - 64.4 °F 61% 29.89 in 6.2 mi West 2.3 mph - N/A   Scattered Clouds
7:00 PM 80.6 °F 82.3 °F 64.4 °F 58% 29.89 in 6.2 mi West 4.6 mph - N/A   Scattered Clouds
8:00 PM 80.6 °F 81.8 °F 62.6 °F 54% 29.89 in 6.2 mi West 6.9 mph - N/A   Scattered Clouds
9:00 PM 81 °F - 63 °F 44% 29.93 in 9 mi West 9.2 mph - -   Mostly Cloudy
9:00 PM 80.6 °F 81.8 °F 62.6 °F 54% 29.92 in 6.2 mi West 9.2 mph - N/A   Scattered Clouds